Flag for Pakistan Weather past 2 weeks in Rawalpindi, Pakistan

Now
77 °F

Partly cloudy.


Feels Like: 78 °F
Forecast: 64 / 90 °F
Wind: 7 mph from Northwest

Location: Islamabad Airport


UV Index: 7 (High)

Visibility: 4 mi


Pressure: 29.95 "Hg

Humidity: 36%

Dew point: 48 °F

Location of RawalpindiLocation

Historic Weather in Rawalpindi

°F

Rawalpindi temperature yesterday

Maximum temperature yesterday: 84 °F (at 3:00 PM)
Minimum temperature yesterday: 57 °F (at 4:00 AM)
Average temperature yesterday: 70 °F

Past Weeks' High & Low Weather Summary

 TemperatureHumidityPressure
High86 °F (Apr 10, 1:00 PM)94% (Apr 8, 6:00 AM)30.07 "Hg (Apr 8, 6:00 AM)
Low55 °F (Apr 9, 6:00 AM)16% (Apr 10, 2:00 PM)29.80 "Hg (Apr 12, 5:00 PM)
Average70 °F55%29.95 "Hg
* Reported Apr 6 8:00 PM — Apr 21 8:00 PM, Rawalpindi, Weather by CustomWeather, © 2014

Note: Actual official high and low records may vary slightly from our data, if they occured in-between our weather recording intervals... More about our weather records

Advertising

Historic Weather Conditions — Data for Previous 24 hours

 ConditionsComfort  
Time TempWeatherWind HumidityBarometerVisibility
8:00 PM
Apr 21
77 °FPartly cloudy.7 mph36%29.95 "Hg4 mi
7:00 PM77 °FPartly cloudy.7 mph36%29.95 "Hg4 mi
5:00 PM81 °FBroken clouds.14 mph34%29.92 "HgN/A
4:00 PM86 °FScattered clouds.12 mph31%29.95 "HgN/A
3:00 PM84 °FScattered clouds.12 mph33%29.95 "HgN/A
2:00 PM84 °FBroken clouds.12 mph33%29.98 "HgN/A
11:00 AM79 °FPartly sunny.12 mph39%30.01 "Hg5 mi
10:00 AM77 °FPartly sunny.No wind42%30.01 "Hg4 mi
9:00 AM70 °FScattered clouds.No wind57%30.01 "Hg4 mi
8:00 AM66 °FScattered clouds.5 mph60%29.98 "Hg4 mi
7:00 AM63 °FScattered clouds.No wind68%29.98 "Hg5 mi
6:00 AM61 °FScattered clouds.5 mph72%29.95 "Hg5 mi
5:00 AM61 °FClear.7 mph72%29.95 "Hg5 mi
4:00 AM61 °FClear.7 mph72%29.95 "Hg5 mi
3:00 AM64 °FClear.5 mph64%29.95 "Hg5 mi
2:00 AM64 °FClear.5 mph64%29.98 "Hg5 mi
1:00 AM64 °FPassing clouds.No wind73%29.98 "Hg5 mi
12:00 AM70 °FPassing clouds.No wind60%29.98 "Hg5 mi
11:00 PM
Apr 20
70 °FPassing clouds.9 mph60%29.98 "Hg5 mi
9:00 PM73 °FPassing clouds.14 mph53%30.01 "HgN/A
Weather by CustomWeather, © 2014

See weather overview